User: anonymous   Login
Location: Unspecified
(0.0000°N, 0.0000°E)
Time: 22:42:34
(UTC+02:00)
Language:

ARIANE 5 R/B - Orbit

View from above orbital plane
View from above orbital plane
View from above satellite
View from above satellite

Ground track
Ground track

The orbit data is extracted from the following two-line orbital elements,

1 29646U 06054D   17174.93665340 +.00004682 +00000-0 +74192-3 0  9994
2 29646 002.9828 323.0754 7108534 323.2394 004.5040 02.51413849091905
Epoch (UTC): 23 June 2017 22:28:46
Eccentricity: 0.7108534
inclination: 2.9828°
perigee height: 227 km
apogee height: 32707 km
right ascension of ascending node: 323.0754°
argument of perigee: 323.2394°
revolutions per day: 2.51413849
mean anomaly at epoch: 4.5040°
orbit number at epoch: 9190

The dashed part of the orbit path shows where the satellite is in the earth's shadow,  

DLR